RESURS
1 25394U 98043A   06073.29311368 -.00000042  00000-0 -19305-7 0 03241
2 25394 098.5035 139.3442 0002350 088.4220 271.7227 14.24095725398899
FENGYUN1
1 25730U 99025A   06074.57241678 -.00000256  00000-0 -11740-3 0 06740
2 25730 098.6215 070.6761 0015368 049.0607 311.1887 14.11807062352803
OKEAN-0
1 25860U 99039A   06075.64488154  .00000071  00000-0  18257-4 0  6946
2 25860 097.7395 094.2675 0001917 060.9058 299.2342 14.73343800358125
NOAA-16
1 26536U 00055A   06075.55251835 -.00000157  00000-0 -60367-4 0  7937
2 26536 099.0558 041.1308 0011083 024.3601 335.8041 14.12321605282502
NOAA-17
1 27453U 02032A   06074.77466842 -.00000011  00000-0  14384-4 0 08142
2 27453 098.6298 148.7772 0011443 351.2580 008.8395 14.23757954193483
NOAA-18
1 28654U 05018A   06075.38133765  .00000095  00000-0  76728-4 0  4008
2 28654 098.7796 020.6845 0014841 121.5825 238.6792 14.10939488 42291
HUBBLE
1 20580U 90037B   06074.94673025  .00000424  00000-0  20270-4 0 05796
2 20580 028.4689 297.6910 0003507 271.8882 088.1305 14.99981376671083
UARS
1 21701U 91063B   06075.48483715  .00002664  00000-0  57783-4 0  7134
2 21701 056.9784 131.6928 0110112 034.6642 326.1524 15.42388045794994
PO-34
1 25520U 98064B   06074.97521684  .00000502  00000-0  15240-4 0 04336
2 25520 028.4591 294.7003 0005116 305.0788 054.9324 15.16634378407882
ISS
1 25544U 98067A   06076.01874413  .00010364  00000-0  74155-4 0  5443
2 25544 051.6446 301.7148 0008820 014.6414 133.3433 15.74386111418639
OO-38
1 26063U 00004C   06075.81802570 -.00000041  00000-0  63182-5 0  5694
2 26063 100.1890 350.2405 0037260 008.1453 352.0319 14.35756451321411
NO-45
1 26932U 01043D   06075.80219410 -.00000121  00000-0 -15011-4 0  2657
2 26932 067.0559 245.3294 0007875 281.6566 078.3632 14.29518311232760
UWE-1
1 28892U 05043C   06075.77141669  .00000149  00000-0  41266-4 0  3980
2 28892 098.1736 335.4409 0018443 097.9741 262.3558 14.59316171 20494
XI-V
1 28895U 05043F   06075.76603481  .00000211  00000-0  54331-4 0  3816
2 28895 098.1756 335.4832 0018980 099.0364 261.2993 14.59371681 20374
NCUBE2
1 28897U 05043H   06074.99893289  .00000136  00000-0  38404-4 0   411
2 28897 098.1749 334.7261 0018365 101.4445 258.8826 14.59524317 12533
AO-54
1 28933U 05035C   06074.99608188  .00032157  00000-0  19253-3 0   525
2 28933 051.6417 306.4319 0007326 042.6615 317.4742 15.77492702  6311
